Regional Weather Roundup
Issued by NWS Cleveland, OH

Home | Current Version | Previous Version | Graphics & Text | Print | Product List | Glossary On
Versions: 1 2 3 4 5 6 7 8 9 10 11 12 13 14 15 16 17 18 19 20 21 22 23 24 25 26 27 28 29 30 31 32 33 34 35 36 37 38 39 40 41 42 43 44 45 46 47 48 49 50
000
ASUS41 KCLE 300310
RWRCLE
OHIO REGIONAL WEATHER ROUNDUP
NATIONAL WEATHER SERVICE CLEVELAND, OH
1100 PM EDT FRI AUG 29 2014

NOTE: "FAIR" INDICATES FEW OR NO CLOUDS BELOW 12,000 FEET WITH NO
SIGNIFICANT WEATHER AND/OR OBSTRUCTIONS TO VISIBILITY.

OHZ001>008-015>018-024>027-034-035-043-044-300400-
   NORTHWEST OHIO

CITY           SKY/WX    TMP DP  RH WIND       PRES   REMARKS
DEFIANCE       PTCLDY    76  64  66 SE5       30.02R
FINDLAY        CLEAR     73  62  68 SE9       30.03S
TOLEDO EXPRESS CLEAR     69  63  81 SE3       30.02S
TOLEDO EXEC    CLEAR     69  63  81 SE6       30.03S
LIMA           CLEAR     73  64  73 SE8       30.04R
$$

OHZ009>014-019>023-028>033-038-089-300400-
   NORTHEAST OHIO

CITY           SKY/WX    TMP DP  RH WIND       PRES   REMARKS
CLE-HOPKINS    CLEAR     68  54  60 S7        30.09R
CLE-LAKEFRONT  CLEAR     73  53  49 SE10      30.05F
CUY CO. ARPT   PTCLDY    72  57  60 SE9       30.08S
LORAIN-ELYRIA  CLEAR     69  56  62 S6        30.07S
ASHTABULA      CLEAR     64  55  72 S6        30.11R
AKRON-CANTON   CLEAR     70  55  59 SE8       30.10S
WOOSTER        CLEAR     62  56  80 S5        30.10S
MANSFIELD      PTCLDY    69  59  70 SE9       30.09S
YOUNGSTOWN     PTCLDY    63  55  75 SE6       30.11F
$$

OHZ042-051>053-060>062-070>072-077>081-300400-
  SOUTHWEST OHIO

CITY           SKY/WX    TMP DP  RH WIND       PRES   REMARKS
CINC-COVINGTON PTCLDY    76  68  76 S5        30.03S
CINC-LUNKEN    PTCLDY    74  72  93 CALM      30.03S
HAMILTON       PTCLDY    73  72  96 CALM      30.03S FOG
DAYTON         MOCLDY    74  69  85 SE7       30.06R
WRIGHT-PAT AFB PTCLDY    73  70  90 NE3       30.05R
DAYTON GENERAL PTCLDY    74  68  81 E6        30.04R
WILMINGTON     CLOUDY    74  64  71 SE7       30.05S
$$

OHZ036-037-039>041-045>050-054>059-063>069-073>076-082>088-300400-
  CENTRAL AND SOUTHEAST OHIO

CITY           SKY/WX    TMP DP  RH WIND       PRES   REMARKS
COLUMBUS       PTCLDY    78  60  53 SE6       30.06S
OSU AIRPORT    PTCLDY    76  62  62 SE8       30.06S
BOLTON FIELD   PTCLDY    73  64  73 SE5       30.07S
RICKENBACK AFB PTCLDY    74  59  59 SE6       30.05F
NEWARK         CLEAR     65  63  93 CALM      30.08S
MARION         CLEAR     70  61  73 SE7       30.07R
LANCASTER      PTCLDY    67  63  87 CALM      30.07S
ZANESVILLE     CLEAR     67  61  81 S3        30.10R
NEW PHILLY     CLEAR     60  58  92 SE5       30.10S
$$


USA.gov is the U.S. government's official web portal to all federal, state and local government web resources and services.